Find Starlink 35117

NORAD ID: 65632 Int'l Des: 2025-210 Owner: SPXS Country: US Constellation: starlink operational
LEOCIRCULAR

当前视图

正在加载3D地球...

关于 Starlink 35117

正在加载描述...

即将过境

Passes for default location (London). Set your location on the main map for personalized predictions.

高度历史

Loading altitude history...

两行轨道根数

1 65632U 25210L 26150.37810360 .00030208 00000-0 10272-2 0 9991
2 65632 53.1609 287.9511 0001254 57.1788 302.9333 15.30220285 40239
Epoch: May 30, 2026 • Age: 15 hours

当前状态

高度 486.7 km
速度 7.62 km/s
星下点 -34.28°S, 115.34°W
发射日期 Sep 18, 2025
运行时间 0.6 years
类型 internet

技术详情

分类 Payload
质量 575.00 kg
干质量 530.00 kg
总质量 575.00 kg
长度 0.30 m
直径 4.10 m
跨度 29.00 m
形状 Box + pan
制造商 SPXS
平台类型 Starlink V2MO
阶段状态 In Orbit
所有者/国家 SPXS/US

Most Searched